TimeEST,TemperatureF,Dew PointF,Humidity,Sea Level PressureIn,VisibilityMPH,Wind Direction,Wind SpeedMPH,Gust SpeedMPH,PrecipitationIn,Events,Conditions,WindDirDegrees,DateUTC
12:53 AM,27.0,21.0,78,30.24,7.0,South,6.9,-,N/A,,Clear,190,2013-01-08 05:53:00
1:53 AM,27.0,19.9,75,30.25,6.0,South,8.1,-,N/A,,Haze,190,2013-01-08 06:53:00
2:53 AM,25.0,19.9,81,30.25,6.0,South,6.9,-,N/A,,Haze,180,2013-01-08 07:53:00
3:53 AM,25.0,19.9,81,30.25,6.0,South,8.1,-,N/A,,Haze,190,2013-01-08 08:53:00
4:53 AM,24.1,19.0,81,30.26,6.0,South,6.9,-,N/A,,Haze,190,2013-01-08 09:53:00
5:53 AM,25.0,19.0,78,30.27,6.0,SSW,5.8,-,N/A,,Haze,200,2013-01-08 10:53:00
7:53 AM,24.1,19.0,81,30.29,5.0,South,4.6,-,N/A,,Haze,190,2013-01-08 12:53:00
8:53 AM,26.1,19.9,78,30.30,5.0,South,8.1,-,N/A,,Haze,180,2013-01-08 13:53:00
9:53 AM,27.0,19.9,75,30.32,6.0,SW,8.1,-,N/A,,Haze,220,2013-01-08 14:53:00
10:53 AM,33.1,23.0,66,30.31,7.0,SW,8.1,-,N/A,,Clear,220,2013-01-08 15:53:00
11:53 AM,37.0,24.1,59,30.31,9.0,SW,10.4,-,N/A,,Clear,230,2013-01-08 16:53:00
12:53 PM,37.9,24.1,57,30.29,9.0,SW,11.5,-,N/A,,Clear,220,2013-01-08 17:53:00
1:53 PM,39.0,24.1,55,30.28,10.0,SW,9.2,-,N/A,,Clear,220,2013-01-08 18:53:00
2:53 PM,39.9,24.1,53,30.29,10.0,SW,4.6,-,N/A,,Clear,230,2013-01-08 19:53:00
4:53 PM,39.9,25.0,55,30.29,10.0,South,5.8,-,N/A,,Clear,180,2013-01-08 21:53:00
5:53 PM,37.9,26.1,62,30.29,10.0,South,6.9,-,N/A,,Clear,180,2013-01-08 22:53:00
6:53 PM,36.0,26.1,67,30.30,8.0,South,5.8,-,N/A,,Clear,190,2013-01-08 23:53:00
7:53 PM,35.1,26.1,70,30.31,8.0,South,6.9,-,N/A,,Clear,180,2013-01-09 00:53:00
8:53 PM,34.0,26.1,73,30.30,8.0,South,6.9,-,N/A,,Clear,190,2013-01-09 01:53:00
9:53 PM,35.1,26.1,70,30.27,8.0,South,11.5,-,N/A,,Clear,180,2013-01-09 02:53:00
10:53 PM,35.1,26.1,70,30.26,9.0,South,10.4,-,N/A,,Clear,180,2013-01-09 03:53:00